USA 17

Satellite information

Favourite Embed

Satellite Type and Status

PAYLOADIN ORBIT

Key statistics

Satellite USA 17 at a glance.

Uptime

14453

Days in orbit

Revolutions

≈ 13.7

Per day

Orbit

LEO

Low Earth Orbit

Inclination

63.3

Latest

Satellite identification and parameters

Extended collection of information and parameters for USA 17.

Object identification

Identified? True

Debris? False

Object name: USA 17

International designator: 1986-014F

Object number (NORAD): 16625

Object ID (CCSDS): 16625

Country: UNITED STATES OF AMERICA (US)

Current information (Y/N): Y

RCS size: LARGE

Orbital parameters

Period: 105.039 minutes

Inclination: 63.2992 deg

SMA: 7374.416 km

Apoapsis: 1595.745 km

Periapsis: 396.818 km

RAAN: 166.52 deg

Eccentricy: 0.08128961

Argument of periapsis: 110.4875 deg

Mean anomaly: 258.5287 deg

Mean motion: 13.70917381 rev/day

Mean motion (dot): 0.00010753 rev/day2

B* drag term: 0.00093865364 1/REarth

Two-line elements (TLE)

Creation date: Sept. 3, 2025, 10:15 a.m.

Reference frame: TEME

Reference center: EARTH

Epoch: Sept. 3, 2025, 1:43 a.m. UTC

TLE line 0: 0 USA 17

TLE line 1: 1 16625U 86014F 25246.07166068 .00010753 00000-0 93865-3 0 9992

TLE line 2: 2 16625 63.2992 166.5200 0812896 110.4875 258.5287 13.70917381303400

Live tracking on map

Real-time ground track for satellite USA 17.

In-orbit conjunctions

There are no conjunctions computed for USA 17, at the moment. Check back to stay up to date, as we update our databases every day.

Go to all conjunctions

Associated space launch

The Parcae satellites were passive ELINT satellites. MSD satellites were dispensers of triplets of ocean surveillance satellites.

USA 17 was lifted into orbit during the mission ‘Atlas H | Parcae 8A,B,C & MSD 8’, on board a Atlas H space rocket.

The launch took place on Feb. 9, 1986, 10:06 a.m. from Space Launch Complex 3E.

For more information about the launch, click the button.

Launch to space Atlas H | Parcae 8A,B,C & MSD 8
Atlas H | Parcae 8A,B,C & MSD 8

Agency: N/A

Status: Launch Successful

Launch date: Feb. 9, 1986, 10:06 a.m. UTC

Rocket: Atlas H

Launch pad: Space Launch Complex 3E

Location: Vandenberg SFB, CA, USA

...

Latest news about this satellite

There are no fresh news available about this satellite. Check back as we update our databases every day.


Newsletter sign-up

Weekly statistics, charts and insights to help you stay on top of the space industry.